Regional Weather Roundup
Issued by NWS Northern Indiana

Home | Current Version | Previous Version | Graphics & Text | Print | Product List | Glossary On
Versions: 1 2 3 4 5 6 7 8 9 10 11 12 13 14 15 16 17 18 19 20 21 22 23 24 25 26 27 28 29 30 31 32 33 34 35 36 37 38 39 40 41 42 43 44 45 46 47 48 49 50
000
ASUS43 KIWX 160900
RWRIWX

KIWX WEATHER ROUNDUP
NATIONAL WEATHER SERVICE NORTHERN INDIANA
500 AM EDT WED APR 16 2014

NOTE: "FAIR" INDICATES FEW OR NO CLOUDS BELOW 12,000 FEET WITH NO
SIGNIFICANT WEATHER AND/OR OBSTRUCTIONS TO VISIBILITY.

* THESE STATIONS ARE NOT UNDER NWS QUALITY CONTROL. THEY ALSO MAY NOT
  REPORT WEATHER SUCH AS PRECIPITATION OR FOG.

INZ001>027-161000-
NORTHERN INDIANA

CITY           SKY/WX    TMP DP  RH WIND       PRES   REMARKS
VALPARAISO     CLEAR     25  16  68 SE3       30.29R
SOUTH BEND     CLEAR     27  14  58 SE6       30.30R WCI  20
GOSHEN         CLEAR     26  16  65 CALM      30.30R
ANGOLA*        CLEAR     21  18  86 CALM      30.30R
FORT WAYNE     CLEAR     23  16  74 S3        30.33R

$$
INZ028>050-161000-
CENTRAL INDIANA

CITY           SKY/WX    TMP DP  RH WIND       PRES   REMARKS
LAFAYETTE      CLEAR     28  19  69 SE5       30.30R WCI  23
KOKOMO*        CLEAR     27  19  74 S7        30.31R WCI  19
MUNCIE*        CLEAR     26  15  63 S3        30.32R
INDIANAPOLIS   CLEAR     28  18  66 SE10      30.31R WCI  19

$$
MIZ043>046-050>051-056>058-064>065-071>073-077>080-161000-
SOUTHWEST LOWER MICHIGAN

CITY           SKY/WX    TMP DP  RH WIND       PRES   REMARKS
BATTLE CREEK   CLEAR     22  15  75 CALM      30.29R
BENTON HARBOR  CLEAR     24  16  71 SE7       30.29R WCI  16
COLDWATER*     CLEAR     22  17  82 CALM      30.30R
HILLSDALE*     CLEAR     19  15  86 S3        30.28R
HOLLAND        CLEAR     24  17  74 SE6       30.30R WCI  17
GRAND RAPIDS   CLEAR     23  16  74 CALM      30.29R
KALAMAZOO      CLEAR     24  16  71 S3        30.30R
STURGIS*       CLEAR     23  16  74 CALM      30.30R
THREE RIVERS*  FAIR      25  17  72 S5        30.31R WCI  20

$$
OHZ001>008-015>018-024>025-161000-
NORTHWEST OHIO

CITY           SKY/WX    TMP DP  RH WIND       PRES   REMARKS
DEFIANCE       CLEAR     21  15  78 CALM      30.33R
FINDLAY        CLEAR     25  18  74 CALM      30.31R
TOLEDO EXPRESS CLEAR     20  14  77 CALM      30.32R
TOLEDO METCALF CLEAR     25  14  63 SW3       30.34R
LIMA           CLEAR     25  18  74 S5        30.32R WCI  19

$$
&&



USA.gov is the U.S. government's official web portal to all federal, state and local government web resources and services.